Regional Weather Roundup
Issued by NWS Cleveland, OH

Home | Current Version | Previous Version | Text Only | Print | Product List | Glossary Off
Versions: 1 2 3 4 5 6 7 8 9 10 11 12 13 14 15 16 17 18 19 20 21 22 23 24 25 26 27 28 29 30 31 32 33 34 35 36 37 38 39 40 41 42 43 44 45 46 47 48 49 50

000
ASUS41 KCLE 230710
RWRCLE
OHIO REGIONAL WEATHER ROUNDUP
NATIONAL WEATHER SERVICE CLEVELAND, OH
300 AM EDT SUN APR 23 2017

NOTE: "FAIR" INDICATES FEW OR NO CLOUDS BELOW 12,000 FEET WITH NO
SIGNIFICANT WEATHER AND/OR OBSTRUCTIONS TO VISIBILITY.

OHZ001>008-015>018-024>027-034-035-043-044-230800-
   NORTHWEST OHIO

CITY           SKY/WX    TMP DP  RH WIND       PRES   REMARKS
DEFIANCE       CLEAR     39  34  82 CALM      30.13F
FINDLAY        CLEAR     42  31  64 NE5       30.11S
TOLEDO EXPRESS CLEAR     40  35  83 CALM      30.12F
TOLEDO EXEC    CLEAR     46  32  58 NE5       30.13F
LIMA           CLEAR     38  32  79 E6        30.10F
$$

OHZ009>014-019>023-028>033-038-089-230800-
   NORTHEAST OHIO

CITY           SKY/WX    TMP DP  RH WIND       PRES   REMARKS
CLE-HOPKINS    CLEAR     41  34  76 CALM      30.14F
CLE-LAKEFRONT  CLEAR     45  37  73 CALM      30.11F
CUY CO. ARPT   NOT AVBL
LORAIN-ELYRIA  CLEAR     38  33  82 CALM      30.12F
ASHTABULA      CLEAR     35  34  96 CALM      30.12F FOG
AKRON-CANTON   CLEAR     39  33  79 N9        30.09F
WOOSTER        CLEAR     38  33  82 NE7       30.10F
MANSFIELD      CLEAR     39  33  79 NE5       30.09F
YOUNGSTOWN     PTCLDY    37  32  82 NE7       30.10F
$$

OHZ042-051>053-060>062-070>072-077>081-230800-
  SOUTHWEST OHIO

CITY           SKY/WX    TMP DP  RH WIND       PRES   REMARKS
CINC-COVINGTON CLEAR     45  35  68 NE15      30.03F
CINC-LUNKEN    CLEAR     40  39  97 CALM      30.06F
HAMILTON       CLEAR     43  36  76 NE7       30.07F
DAYTON         CLEAR     37  32  82 N5        30.07F
WRIGHT-PAT AFB CLEAR     39  35  86 N3        30.07F
DAYTON GENERAL CLEAR     39  34  82 NE7       30.05F
WILMINGTON     CLEAR     39  36  89 NE8       30.05F
$$

OHZ036-037-039>041-045>050-054>059-063>069-073>076-082>088-230800-
  CENTRAL AND SOUTHEAST OHIO

CITY           SKY/WX    TMP DP  RH WIND       PRES   REMARKS
COLUMBUS       CLEAR     40  35  83 N7        30.06F
OSU AIRPORT    CLEAR     38  35  89 N7        30.07F
BOLTON FIELD   CLEAR     38  34  87 N6        30.07F
RICKENBACK AFB CLEAR     40  35  83 N7        30.06F
NEWARK         CLEAR     41  33  73 VRB3      30.07F
MARION         CLEAR     36  31  82 NE5       30.10F
LANCASTER      CLEAR     40  34  79 CALM      30.06F
ZANESVILLE     CLEAR     41  33  73 N5        30.07F
NEW PHILLY     NOT AVBL
$$



USA.gov is the U.S. government's official web portal to all federal, state and local government web resources and services.